CW9861 Weather Reports


time (UTC)temp
C
wind
direction
speed
KPH
gust
KPH
rain 1hr
cm
rain 24hr
cm
rain mn
cm
humidity
%
barometer
mb
20260503213501 12 303 9.7 22.5 0.00 0.00 0.00 66 1006.9
20260503212959 12 235 8.0 16.1 0.00 0.00 0.00 67 1007.0
20260503212501 12 220 8.0 16.1 0.00 0.00 0.00 67 1007.0
20260503211959 12 236 4.8 22.5 0.00 0.00 0.00 69 1007.0
20260503211459 12 211 6.4 24.1 0.00 0.00 0.00 68 1007.1
20260503210959 12 266 8.0 24.1 0.00 0.00 0.00 69 1007.1
20260503210500 12 210 12.9 22.5 0.00 0.00 0.00 68 1007.2
20260503210000 12 211 8.0 25.7 0.00 0.00 0.00 68 1007.3
20260503205458 11 233 12.9 27.4 0.00 0.00 0.00 69 1007.3
20260503204959 11 194 11.3 27.4 0.00 0.00 0.00 70 1007.4
20260503204458 11 224 11.3 24.1 0.00 0.00 0.00 71 1007.5
20260503203959 11 153 11.3 24.1 0.00 0.00 0.00 70 1007.7
20260503203459 11 235 11.3 29.0 0.00 0.00 0.00 69 1007.7
20260503202959 11 234 16.1 29.0 0.00 0.00 0.00 68 1007.8
20260503202459 11 286 14.5 29.0 0.00 0.00 0.00 67 1007.7
20260503201958 12 251 12.9 37.0 0.00 0.00 0.00 65 1007.9
20260503201458 12 219 12.9 27.4 0.00 0.00 0.00 64 1007.9
20260503200958 12 247 11.3 27.4 0.00 0.00 0.00 63 1007.9
20260503200458 12 224 14.5 27.4 0.00 0.00 0.00 62 1007.9
20260503200001 12 228 14.5 27.4 0.00 0.00 0.00 61 1008.1
20260503195459 12 266 9.7 32.2 0.00 0.00 0.00 60 1008.3
20260503195000 13 242 16.1 32.2 0.00 0.00 0.00 59 1008.1
20260503194459 13 298 14.5 27.4 0.00 0.00 0.00 59 1007.8
20260503194000 13 285 12.9 56.3 0.00 0.00 0.00 57 1007.9
20260503193459 14 247 14.5 56.3 0.00 0.00 0.00 55 1007.9
20260503192959 15 197 9.7 29.0 0.00 0.00 0.00 56 1007.8
20260503192459 15 213 11.3 27.4 0.00 0.00 0.00 55 1007.7
20260503191959 15 271 14.5 29.0 0.00 0.00 0.00 54 1007.7
20260503191459 16 255 8.0 29.0 0.00 0.00 0.00 55 1007.9
20260503190958 15 290 9.7 27.4 0.00 0.00 0.00 53 1007.9
20260503190459 16 211 11.3 32.2 0.00 0.00 0.00 52 1008.0
20260503185959 16 266 11.3 38.6 0.00 0.00 0.00 55 1008.1
20260503174957 16 210 16.1 37.0 0.00 0.00 0.00 49 1008.9
20260503174458 16 238 14.5 37.0 0.00 0.00 0.00 51 1008.9
20260503173958 16 220 14.5 33.8 0.00 0.00 0.00 50 1008.9
20260503173459 16 217 16.1 30.6 0.00 0.00 0.00 50 1009.0
20260503172958 16 266 8.0 25.7 0.00 0.00 0.00 53 1009.0
20260503172458 16 341 11.3 25.7 0.00 0.00 0.00 52 1009.1
20260503171958 16 231 8.0 20.9 0.00 0.00 0.00 53 1009.2
20260503130959 11 249 9.7 19.3 0.00 0.00 0.00 60 1010.5
20260503130458 10 286 8.0 17.7 0.00 0.00 0.00 61 1010.6
20260503110458 3 229 1.6 4.8 0.00 0.00 0.00 74 1010.7
20260503090458 3 199 0.0 4.8 0.00 0.00 0.00 67 1011.2
20260503081459 3 325 1.6 4.8 0.00 0.00 0.00 63 1011.6
20260503080959 3 210 0.0 3.2 0.00 0.00 0.00 62 1011.4
20260503080459 3 276 0.0 6.4 0.00 0.00 0.00 62 1011.5
20260503072458 4 238 6.4 14.5 0.00 0.00 0.00 60 1011.6
20260503071959 4 232 1.6 14.5 0.00 0.00 0.00 60 1011.6
20260503071458 4 271 4.8 12.9 0.00 0.00 0.00 60 1011.7
20260503070959 4 281 1.6 11.3 0.00 0.00 0.00 59 1011.8
20260503070458 4 5 4.8 11.3 0.00 0.00 0.00 59 1011.9
20260503054959 2 205 3.2 11.3 0.00 0.00 0.00 63 1012.9
20260503054459 2 266 1.6 6.4 0.00 0.00 0.00 64 1013.0
20260503053959 2 232 1.6 6.4 0.00 0.00 0.00 64 1013.0
20260503053458 2 216 1.6 4.8 0.00 0.00 0.00 65 1013.0
20260503052959 2 224 0.0 4.8 0.00 0.00 0.00 65 1013.1
20260503052458 2 214 0.0 4.8 0.00 0.00 0.00 66 1013.1
20260503051959 2 211 1.6 4.8 0.00 0.00 0.00 66 1013.2
20260503051458 2 226 0.0 3.2 0.00 0.00 0.00 66 1013.2
20260503050958 2 220 0.0 4.8 0.00 0.00 0.00 67 1013.2
20260503050459 2 189 0.0 4.8 0.00 0.00 0.00 67 1013.3
20260503050002 2 266 0.0 1.6 0.00 0.00 0.00 68 1013.4
20260503045459 2 266 0.0 3.2 0.00 0.00 0.00 68 1013.4
20260503044959 2 266 1.6 3.2 0.00 0.00 0.00 68 1013.5
20260503044458 2 247 0.0 0.0 0.00 0.00 0.00 68 1013.4
20260503043959 2 247 0.0 0.0 0.00 0.00 0.00 67 1013.4
20260503043459 2 247 0.0 1.6 0.00 0.00 0.00 67 1013.4
20260503042959 2 247 0.0 0.0 0.00 0.00 0.00 67 1013.4
20260503035458 3 247 0.0 0.0 0.00 0.00 0.00 64 1013.8
20260503035000 3 247 0.0 0.0 0.00 0.00 0.00 64 1013.9
20260503034459 3 247 0.0 0.0 0.00 0.00 0.00 64 1014.0
20260503033959 3 247 0.0 0.0 0.00 0.00 0.00 64 1013.9
20260503033459 3 247 0.0 0.0 0.00 0.00 0.00 64 1013.9
20260503033000 3 247 0.0 0.0 0.00 0.00 0.00 63 1013.9
20260503032459 3 247 0.0 0.0 0.00 0.00 0.00 63 1014.0
20260503032000 3 247 0.0 0.0 0.00 0.00 0.00 62 1014.0
20260503031459 3 247 0.0 0.0 0.00 0.00 0.00 61 1013.9
20260503030959 3 247 0.0 0.0 0.00 0.00 0.00 61 1014.1
20260503030459 3 247 0.0 1.6 0.00 0.00 0.00 61 1014.2
20260503030003 4 247 0.0 1.6 0.00 0.00 0.00 61 1014.1
20260503025459 4 213 0.0 0.0 0.00 0.00 0.00 60 1014.1
20260503024959 4 213 0.0 3.2 0.00 0.00 0.00 60 1014.2
20260503024500 4 213 0.0 3.2 0.00 0.00 0.00 59 1014.3
20260503024000 4 238 0.0 1.6 0.00 0.00 0.00 59 1014.3
20260503023459 5 238 0.0 1.6 0.00 0.00 0.00 59 1014.3
20260503022959 5 238 0.0 3.2 0.00 0.00 0.00 58 1014.3
20260503022500 5 238 0.0 3.2 0.00 0.00 0.00 58 1014.4
20260503022000 5 238 0.0 3.2 0.00 0.00 0.00 58 1014.4
20260503021459 5 242 1.6 4.8 0.00 0.00 0.00 57 1014.3
20260503020959 5 254 0.0 4.8 0.00 0.00 0.00 57 1014.3
20260503020500 5 284 0.0 4.8 0.00 0.00 0.00 56 1014.3
20260503020002 5 297 0.0 4.8 0.00 0.00 0.00 55 1014.3
20260503015459 6 228 0.0 1.6 0.00 0.00 0.00 55 1014.2
20260503014959 6 226 0.0 3.2 0.00 0.00 0.00 55 1014.2
20260503014459 6 223 0.0 3.2 0.00 0.00 0.00 54 1014.2
20260503014000 6 253 0.0 3.2 0.00 0.00 0.00 54 1014.2
20260503013459 6 211 0.0 4.8 0.00 0.00 0.00 53 1014.2
20260503012958 6 247 1.6 6.4 0.00 0.00 0.00 53 1014.1
20260503012500 6 245 1.6 6.4 0.00 0.00 0.00 52 1014.1
20260503012000 7 266 1.6 4.8 0.00 0.00 0.00 52 1014.1
20260503011459 7 255 0.0 3.2 0.00 0.00 0.00 51 1014.2
20260503010959 7 250 1.6 8.0 0.00 0.00 0.00 50 1014.1
20260503010459 7 266 0.0 9.7 0.00 0.00 0.00 50 1014.1
20260503010001 7 249 0.0 4.8 0.00 0.00 0.00 49 1014.0
20260503005459 8 255 1.6 9.7 0.00 0.00 0.00 49 1014.0
20260503004959 8 282 3.2 9.7 0.00 0.00 0.00 47 1013.9
20260503004459 8 282 1.6 8.0 0.00 0.00 0.00 46 1014.0
20260503003959 8 302 1.6 8.0 0.00 0.00 0.00 44 1014.0
20260503003459 9 276 0.0 4.8 0.00 0.00 0.00 39 1013.9
20260503002959 9 286 1.6 6.4 0.00 0.00 0.00 38 1013.8
20260503002459 9 276 1.6 8.0 0.00 0.00 0.00 37 1013.9
20260503001959 9 282 1.6 8.0 0.00 0.00 0.00 37 1013.8
20260503001459 10 260 3.2 9.7 0.00 0.00 0.00 37 1013.8
20260503000959 10 309 6.4 9.7 0.00 0.00 0.00 36 1013.8
20260502233500 10 342 6.4 12.9 0.00 0.00 0.00 35 1014.0
20260502232959 10 286 4.8 14.5 0.00 0.00 0.00 35 1014.0
20260502232459 10 308 3.2 17.7 0.00 0.00 0.00 35 1014.0
20260502231959 10 286 9.7 17.7 0.00 0.00 0.00 34 1014.0
20260502231459 10 276 6.4 17.7 0.00 0.00 0.00 35 1014.0
20260502230959 10 322 3.2 14.5 0.00 0.00 0.00 34 1014.0
20260502230459 10 276 6.4 14.5 0.00 0.00 0.00 34 1014.0
20260502225959 11 325 6.4 19.3 0.00 0.00 0.00 34 1014.0
20260502225459 11 330 6.4 19.3 0.00 0.00 0.00 34 1014.0
20260502224959 11 342 4.8 17.7 0.00 0.00 0.00 33 1014.0
20260502224459 11 297 4.8 14.5 0.00 0.00 0.00 35 1014.0
20260502223959 11 301 6.4 17.7 0.00 0.00 0.00 37 1014.0
20260502223459 11 230 6.4 17.7 0.00 0.00 0.00 41 1014.0
20260502222959 11 334 6.4 9.7 0.00 0.00 0.00 39 1014.1